Regional Weather Roundup
Issued by NWS

Home | Current Version | Previous Version | Text Only | Print | Product List | Glossary On
Versions: 1 2 3 4 5 6 7 8 9 10 11 12 13 14 15 16 17 18 19 20 21 22 23 24 25 26 27 28 29 30 31 32 33 34 35 36 37 38 39 40 41 42 43 44 45 46 47 48 49 50
000
ASUS44 KJAN 290510
RWRMS

MISSISSIPPI HOURLY WEATHER ROUNDUP
NATIONAL WEATHER SERVICE JACKSON MS
1200 AM CDT THU JUN 29 2017

NOTE: "FAIR: INDICATES FEW OR NO CLOUDS BELOW 12,000 FEET WITH NO
SIGNIFICANT WEATHER AND/OR OBSTRUCTIONS TO VISIBILITY.

MSZ001>002-007>008-010>013-018>021-025>028-034>036-290600-
NORTHWEST MISSISSIPPI

CITY           SKY/WX    TMP DP  RH WIND       PRES   REMARKS
BATESVILLE     FAIR      74  67  77 SE3       30.00R
CLARKSDALE       N/A     77  72  83 SE8       29.97R
CLEVELAND      FAIR      74  74 100 S7        29.96S
GREENWOOD      CLEAR     76  70  82 SE8       29.99R
GREENVILLE     CLEAR     75  70  84 SE6       29.96
OXFORD         FAIR      73  66  78 SE7       30.03R
TUNICA           N/A     73  66  78 SE8       29.97S
WINONA         FAIR      73  71  95 SE12      30.00S
$$

MSZ003>006-009-014>017-022>024-029>033-037>039-290600-
NORTHEAST MISSISSIPPI

CITY           SKY/WX    TMP DP  RH WIND       PRES   REMARKS
COLUMBUS AFB   MOCLDY    72  70  91 SE9       30.02F
CORINTH        FAIR      75  66  73 S8        30.02R
GOLDN TRIANGLE MOCLDY    73  64  73 S12       29.99F
STARKVILLE     FAIR      72  68  88 S6        30.04F
TUPELO         CLEAR     74  67  78 SE10      30.02S
$$

MSZ040-058-290600-
CENTRAL MISSISSIPPI

CITY           SKY/WX    TMP DP  RH WIND       PRES   REMARKS
JACKSON INTL   MOCLDY    73  70  90 SE7       30.01R
JACKSON HAWKNS MOCLDY    74  70  87 SE7       30.00S
MADISON        FAIR      72  70  94 CALM      30.00S
MERIDIAN KEY   MOCLDY    75  73  93 SE5       30.04F
MERIDIAN NAS   CLOUDY    73  69  87 SE5       30.05F
RAYMOND        FAIR      73  72  94 SE6       29.99S
VICKSBURG VKS    N/A     75  70  83 SE5       29.95S
$$

MSZ059>079-290600-
SOUTH MISSISSIPPI

CITY           SKY/WX    TMP DP  RH WIND       PRES   REMARKS
COLUMBIA       FAIR      73  72  94 SE6       30.04S
HATTIESBURG    MOCLDY    72  70  93 SE3       30.03S
LAUREL         FAIR      73  73 100 SE6       30.03S
MCCOMB         CLOUDY    73  69  87 SE7       29.99F
NATCHEZ        CLOUDY    74  71  91 SE9       29.99R
PINE BELT      MOCLDY    72  68  88 SE8       30.05R
$$

MSZ080>082-290600-
COASTAL MISSISSIPPI

CITY           SKY/WX    TMP DP  RH WIND       PRES   REMARKS
BILOXI         CLOUDY    76  74  94 E9        30.02S
PASCAGOULA     CLOUDY    75  72  90 E5        30.03F
GULFPORT       CLOUDY    76  75  97 NE3       30.02F
$$

LAZ007>009-015>016-023>026-290600-
NORTHEAST LOUISIANA

CITY           SKY/WX    TMP DP  RH WIND       PRES   REMARKS
BASTROP        FAIR      74  73  98 CALM      29.96S
TALLULAH/VBURG PTCLDY    74  70  87 SE6       29.97S
VIDALIA        FAIR      74  71  91 SE7       29.97R
$$



USA.gov is the U.S. government's official web portal to all federal, state and local government web resources and services.